SR8WXB-1 Weather Reports


time (UTC)temp
C
wind
direction
speed
KPH
gust
KPH
rain 1hr
cm
rain 24hr
cm
rain mn
cm
humidity
%
barometer
mb
20260507114415 18 240 30.6 37.0 0.00 0.00 0.00 100 940.5
20260507114015 18 242 40.2 61.2 0.00 0.00 0.00 100 940.5
20260507113615 18 240 32.2 45.1 0.00 0.00 0.00 100 940.6
20260507113215 18 238 32.2 45.1 0.00 0.00 0.00 100 940.6
20260507112812 18 239 29.0 41.8 0.00 0.00 0.00 100 940.5
20260507112412 18 241 35.4 43.5 0.00 0.00 0.00 100 940.5
20260507112012 17 238 33.8 45.1 0.00 0.00 0.00 100 940.6
20260507111612 17 237 30.6 46.7 0.00 0.00 0.00 100 940.5
20260507111212 17 239 29.0 40.2 0.00 0.00 0.00 100 940.5
20260507110809 17 241 30.6 43.5 0.00 0.00 0.00 100 940.6
20260507110409 18 241 29.0 38.6 0.00 0.00 0.00 100 940.6
20260507110009 18 241 33.8 48.3 0.00 0.00 0.00 100 940.6
20260507105210 18 241 32.2 54.7 0.00 0.00 0.00 100 940.5
20260507104807 18 241 35.4 45.1 0.00 0.00 0.00 100 940.5
20260507104406 18 241 35.4 51.5 0.00 0.00 0.00 100 940.5
20260507104006 18 246 45.1 61.2 0.00 0.00 0.00 100 940.5
20260507103606 18 244 49.9 64.4 0.00 0.00 0.00 100 940.5
20260507103206 18 244 43.5 61.2 0.00 0.00 0.00 100 940.5
20260507102803 18 244 53.1 70.8 0.00 0.00 0.00 100 940.4
20260507102404 18 243 45.1 70.8 0.00 0.00 0.00 100 940.4
20260507102000 18 245 51.5 70.8 0.00 0.00 0.00 100 940.4
20260507101601 18 243 46.7 69.2 0.00 0.00 0.00 100 940.4
20260507101200 18 245 37.0 56.3 0.00 0.00 0.00 100 940.5
20260507100757 18 250 43.5 56.3 0.00 0.00 0.00 100 940.4
20260507100357 18 245 45.1 56.3 0.00 0.00 0.00 100 940.4
20260507095957 18 247 43.5 59.5 0.00 0.00 0.00 100 940.5
20260507095557 17 245 38.6 54.7 0.00 0.00 0.00 100 940.6
20260507095157 17 245 53.1 69.2 0.00 0.00 0.00 100 940.5
20260507094755 17 242 41.8 57.9 0.00 0.00 0.00 100 940.5
20260507094355 17 249 48.3 62.8 0.00 0.00 0.00 100 940.5
20260507093946 18 242 38.6 57.9 0.00 0.00 0.00 100 940.4
20260507093546 18 242 41.8 57.9 0.00 0.00 0.00 100 940.4
20260507093146 18 242 41.8 62.8 0.00 0.00 0.00 100 940.4
20260507092743 18 242 48.3 61.2 0.00 0.00 0.00 100 940.4
20260507092343 18 243 38.6 53.1 0.00 0.00 0.00 100 940.4
20260507091943 17 243 38.6 59.5 0.00 0.00 0.00 100 940.4
20260507091543 17 244 53.1 64.4 0.00 0.00 0.00 100 940.3
20260507091143 17 244 48.3 64.4 0.00 0.00 0.00 100 940.3
20260507090741 17 243 51.5 66.0 0.00 0.00 0.00 100 940.3
20260507090341 17 242 38.6 54.7 0.00 0.00 0.00 100 940.2
20260507085941 17 243 46.7 64.4 0.00 0.00 0.00 100 940.3
20260507085541 17 241 40.2 62.8 0.00 0.00 0.00 100 940.3
20260507085141 17 242 38.6 48.3 0.00 0.00 0.00 100 940.2
20260507084738 17 242 41.8 56.3 0.00 0.00 0.00 100 940.3
20260507084338 17 243 35.4 45.1 0.00 0.00 0.00 100 940.3
20260507083938 17 239 35.4 53.1 0.00 0.00 0.00 100 940.2
20260507083537 17 242 33.8 51.5 0.00 0.00 0.00 100 940.1
20260507083137 17 241 29.0 38.6 0.00 0.00 0.00 100 940.2
20260507082735 17 238 29.0 40.2 0.00 0.00 0.00 100 940.1
20260507082335 17 243 37.0 43.5 0.00 0.00 0.00 100 940.1
20260507081935 17 244 37.0 53.1 0.00 0.00 0.00 100 940.1
20260507081532 17 242 30.6 43.5 0.00 0.00 0.00 100 940.0
20260507081132 17 244 40.2 53.1 0.00 0.00 0.00 100 940.0
20260507080729 17 237 33.8 46.7 0.00 0.00 0.00 100 940.0
20260507080329 17 234 20.9 32.2 0.00 0.00 0.00 100 940.0
20260507075929 17 230 27.4 40.2 0.00 0.00 0.00 100 940.1
20260507075529 17 226 32.2 41.8 0.00 0.00 0.00 100 940.0
20260507075129 17 235 22.5 32.2 0.00 0.00 0.00 100 940.0
20260507074726 16 236 25.7 32.2 0.00 0.00 0.00 100 939.9
20260507074326 16 232 25.7 38.6 0.00 0.00 0.00 100 940.0
20260507073926 16 234 22.5 27.4 0.00 0.00 0.00 100 940.0
20260507073526 16 234 17.7 29.0 0.00 0.00 0.00 100 940.0
20260507073126 16 232 19.3 29.0 0.00 0.00 0.00 100 940.0
20260507072723 16 236 25.7 30.6 0.00 0.00 0.00 100 940.0
20260507072323 15 234 30.6 40.2 0.00 0.00 0.00 100 940.0
20260507071923 15 234 33.8 41.8 0.00 0.00 0.00 100 939.9
20260507071523 15 238 25.7 38.6 0.00 0.00 0.00 100 939.9
20260507071123 15 240 25.7 32.2 0.00 0.00 0.00 100 939.8
20260507070709 15 236 24.1 29.0 0.00 0.00 0.00 100 939.8
20260507070309 15 240 30.6 35.4 0.00 0.00 0.00 100 939.7
20260507065509 15 242 35.4 41.8 0.00 0.00 0.00 100 939.5
20260507065109 15 243 32.2 41.8 0.00 0.00 0.00 100 939.4
20260507064706 15 242 37.0 48.3 0.00 0.00 0.00 100 939.4
20260507064306 15 243 32.2 43.5 0.00 0.00 0.00 100 939.3
20260507063907 16 241 37.0 43.5 0.00 0.00 0.00 100 939.4
20260507063507 16 252 32.2 43.5 0.00 0.00 0.00 100 939.4
20260507063107 16 245 35.4 43.5 0.00 0.00 0.00 100 939.4
20260507062704 16 244 32.2 40.2 0.00 0.00 0.00 100 939.4
20260507062306 16 254 30.6 40.2 0.00 0.00 0.00 100 939.4
20260507061903 16 232 29.0 33.8 0.00 0.00 0.00 100 939.4
20260507061503 16 235 25.7 30.6 0.00 0.00 0.00 100 939.4
20260507061100 16 233 22.5 33.8 0.00 0.00 0.00 100 939.4
20260507060657 16 232 19.3 29.0 0.00 0.00 0.00 100 939.3
20260507060257 16 233 22.5 29.0 0.00 0.00 0.00 100 939.1
20260507055857 16 238 20.9 29.0 0.00 0.00 0.00 100 939.1
20260507055457 16 233 24.1 35.4 0.00 0.00 0.00 100 939.0
20260507055057 16 233 22.5 35.4 0.00 0.00 0.00 100 938.9
20260507054654 15 233 20.9 29.0 0.00 0.00 0.00 100 938.9
20260507054255 15 230 20.9 25.7 0.00 0.00 0.00 100 939.0
20260507053855 15 236 19.3 30.6 0.00 0.00 0.00 100 938.9
20260507053455 15 233 19.3 25.7 0.00 0.00 0.00 100 939.0
20260507053055 15 235 17.7 27.4 0.00 0.00 0.00 100 939.0
20260507052652 15 237 17.7 22.5 0.00 0.00 0.00 100 939.0
20260507052252 15 236 24.1 29.0 0.00 0.00 0.00 100 939.0
20260507051852 15 235 20.9 30.6 0.00 0.00 0.00 100 939.1
20260507051452 15 235 22.5 30.6 0.00 0.00 0.00 100 939.1
20260507051052 15 229 24.1 33.8 0.00 0.00 0.00 100 939.1
20260507050649 15 230 25.7 35.4 0.00 0.00 0.00 100 939.2
20260507050249 15 233 27.4 35.4 0.00 0.00 0.00 100 939.2
20260507045849 15 234 29.0 35.4 0.00 0.00 0.00 100 939.2
20260507045449 15 236 25.7 33.8 0.00 0.00 0.00 100 939.2
20260507045049 15 236 25.7 29.0 0.00 0.00 0.00 100 939.3
20260507044646 15 235 29.0 37.0 0.00 0.00 0.00 100 939.3
20260507044246 15 235 25.7 32.2 0.00 0.00 0.00 100 939.3
20260507043846 15 235 25.7 32.2 0.00 0.00 0.00 100 939.3
20260507043446 15 237 27.4 32.2 0.00 0.00 0.00 100 939.3
20260507043037 15 235 29.0 35.4 0.00 0.00 0.00 100 939.2
20260507042634 15 237 30.6 33.8 0.00 0.00 0.00 100 939.2
20260507042234 15 235 27.4 38.6 0.00 0.00 0.00 100 939.1
20260507041435 15 239 32.2 41.8 0.00 0.00 0.00 100 939.1
20260507041035 15 238 29.0 48.3 0.00 0.00 0.00 100 939.1
20260507040628 15 236 29.0 35.4 0.00 0.00 0.00 100 939.0
20260507040228 15 236 25.7 33.8 0.00 0.00 0.00 100 939.0
20260507035828 15 237 24.1 32.2 0.00 0.00 0.00 100 939.0
20260507035428 15 237 25.7 35.4 0.00 0.00 0.00 100 938.9
20260507035028 14 236 25.7 40.2 0.00 0.00 0.00 100 938.9
20260507034625 14 235 25.7 38.6 0.00 0.00 0.00 100 938.9
20260507034225 14 231 25.7 43.5 0.00 0.00 0.00 100 938.9
20260507033825 14 230 25.7 37.0 0.00 0.00 0.00 100 938.8
20260507033425 14 231 27.4 35.4 0.00 0.00 0.00 100 938.9
20260507033025 14 231 20.9 27.4 0.00 0.00 0.00 100 938.9
20260507032622 14 230 20.9 32.2 0.00 0.00 0.00 100 938.9
20260507032222 14 228 24.1 32.2 0.00 0.00 0.00 100 938.9
20260507031822 14 228 24.1 33.8 0.00 0.00 0.00 100 938.8
20260507031422 14 227 25.7 32.2 0.00 0.00 0.00 100 938.8
20260507031022 14 228 25.7 30.6 0.00 0.00 0.00 100 938.7
20260507030620 14 228 25.7 32.2 0.00 0.00 0.00 100 938.6
20260507030220 14 229 25.7 32.2 0.00 0.00 0.00 100 938.6
20260507025820 14 227 25.7 32.2 0.00 0.00 0.00 100 938.6
20260507025420 14 227 22.5 30.6 0.00 0.00 0.00 100 938.6
20260507025020 14 227 22.5 29.0 0.00 0.00 0.00 100 938.5
20260507024617 14 227 20.9 25.7 0.00 0.00 0.00 100 938.5
20260507024217 14 227 20.9 29.0 0.00 0.00 0.00 100 938.5
20260507023817 14 229 20.9 29.0 0.00 0.00 0.00 100 938.5
20260507023417 14 229 19.3 30.6 0.00 0.00 0.00 100 938.4
20260507023017 14 230 19.3 29.0 0.00 0.00 0.00 100 938.4
20260507022614 14 230 19.3 24.1 0.00 0.00 0.00 100 938.4
20260507022214 15 230 17.7 29.0 0.00 0.00 0.00 100 938.4
20260507021814 15 230 20.9 32.2 0.00 0.00 0.00 100 938.4
20260507021414 15 233 22.5 29.0 0.00 0.00 0.00 100 938.4
20260507021014 15 228 16.1 29.0 0.00 0.00 0.00 100 938.3
20260507020611 15 230 19.3 27.4 0.00 0.00 0.00 100 938.4
20260507020207 15 232 16.1 22.5 0.00 0.00 0.00 100 938.3
20260507015807 15 239 22.5 29.0 0.00 0.00 0.00 100 938.3
20260507015356 15 235 20.9 30.6 0.00 0.00 0.00 100 938.3
20260507014956 15 233 24.1 32.2 0.00 0.00 0.00 100 938.3
20260507014553 15 232 29.0 35.4 0.00 0.00 0.00 100 938.3
20260507014153 15 231 32.2 38.6 0.00 0.00 0.00 100 938.2
20260507013753 15 231 32.2 38.6 0.00 0.00 0.00 100 938.2
20260507013353 15 233 33.8 45.1 0.00 0.00 0.00 100 938.1
20260507012954 15 235 35.4 43.5 0.00 0.00 0.00 100 938.0
20260507012551 15 239 40.2 54.7 0.00 0.00 0.00 100 937.9
20260507012151 15 239 40.2 48.3 0.00 0.00 0.00 100 938.0
20260507011751 15 239 38.6 48.3 0.00 0.00 0.00 100 938.0
20260507011351 15 241 45.1 54.7 0.00 0.00 0.00 100 938.0
20260507010951 15 232 37.0 49.9 0.00 0.00 0.00 100 938.0
20260507010548 16 240 35.4 48.3 0.00 0.00 0.00 100 938.1
20260507010148 16 243 41.8 49.9 0.00 0.00 0.00 100 938.1
20260507005748 16 243 38.6 45.1 0.00 0.00 0.00 100 938.2
20260507005348 16 240 38.6 54.7 0.00 0.00 0.00 100 938.2
20260507004948 16 242 38.6 45.1 0.00 0.00 0.00 100 938.2
20260507004545 16 243 38.6 49.9 0.00 0.00 0.00 100 938.2
20260507004145 16 240 37.0 49.9 0.00 0.00 0.00 100 938.2
20260507003745 16 237 35.4 45.1 0.00 0.00 0.00 100 938.2
20260507002945 16 238 35.4 45.1 0.00 0.00 0.00 100 938.1
20260507002542 16 237 32.2 45.1 0.00 0.00 0.00 100 938.1
20260507002142 16 236 29.0 35.4 0.00 0.00 0.00 100 938.2
20260507001742 16 236 29.0 37.0 0.00 0.00 0.00 100 938.1
20260507001342 16 240 29.0 38.6 0.00 0.00 0.00 100 938.1
20260507000942 16 239 30.6 37.0 0.00 0.00 0.00 100 938.1
20260507000539 16 237 32.2 40.2 0.00 0.00 0.00 100 938.1
20260507000140 16 234 27.4 35.4 0.00 0.00 0.00 100 938.1
20260506235736 16 238 29.0 35.4 0.00 0.00 0.00 100 938.1
20260506235336 16 240 27.4 33.8 0.00 0.00 0.00 100 938.2
20260506234936 16 237 29.0 35.4 0.00 0.00 0.00 100 938.2
20260506234533 16 238 29.0 35.4 0.00 0.00 0.00 100 938.2
20260506234133 16 238 37.0 45.1 0.00 0.00 0.00 100 938.3
20260506233733 16 243 33.8 48.3 0.00 0.00 0.00 100 938.2
20260506233333 16 244 30.6 40.2 0.00 0.00 0.00 100 938.3
20260506232933 16 237 30.6 40.2 0.00 0.00 0.00 100 938.3
20260506232530 16 236 32.2 48.3 0.00 0.00 0.00 100 938.2
20260506232130 16 234 25.7 32.2 0.00 0.00 0.00 100 938.2
20260506231722 16 235 25.7 35.4 0.00 0.00 0.00 100 938.2
20260506231322 16 237 27.4 37.0 0.00 0.00 0.00 100 938.2
20260506230922 16 237 25.7 37.0 0.00 0.00 0.00 100 938.2
20260506230519 16 237 27.4 33.8 0.00 0.00 0.00 100 938.3
20260506230119 16 238 30.6 35.4 0.00 0.00 0.00 100 938.3
20260506225719 16 233 30.6 38.6 0.00 0.00 0.00 100 938.3
20260506225318 16 236 30.6 37.0 0.00 0.00 0.00 100 938.3
20260506224918 16 243 33.8 41.8 0.00 0.00 0.00 100 938.3
20260506224515 16 243 35.4 43.5 0.00 0.00 0.00 100 938.3
20260506224115 16 244 41.8 51.5 0.00 0.00 0.00 100 938.3
20260506223715 16 243 45.1 53.1 0.00 0.00 0.00 100 938.3
20260506223315 16 243 45.1 57.9 0.00 0.00 0.00 100 938.2
20260506222915 16 245 46.7 57.9 0.00 0.00 0.00 100 938.3
20260506222512 16 243 38.6 56.3 0.00 0.00 0.00 100 938.1
20260506222112 16 245 43.5 56.3 0.00 0.00 0.00 100 938.1
20260506221712 16 244 45.1 57.9 0.00 0.00 0.00 100 938.1
20260506221312 16 248 45.1 57.9 0.00 0.00 0.00 100 938.1
20260506220912 16 247 51.5 66.0 0.00 0.00 0.00 100 938.1
20260506220509 16 243 45.1 51.5 0.00 0.00 0.00 100 938.1
20260506220109 16 244 45.1 49.9 0.00 0.00 0.00 100 938.1
20260506215709 16 243 45.1 49.9 0.00 0.00 0.00 100 938.1
20260506215306 16 243 43.5 54.7 0.00 0.00 0.00 100 938.1
20260506214906 16 243 43.5 54.7 0.00 0.00 0.00 100 938.1
20260506214503 16 244 41.8 49.9 0.00 0.00 0.00 100 938.0
20260506214103 16 245 45.1 59.5 0.00 0.00 0.00 100 938.1
20260506213703 16 247 41.8 56.3 0.00 0.00 0.00 100 938.1
20260506213303 16 247 45.1 66.0 0.00 0.00 0.00 100 938.0
20260506212903 16 245 46.7 61.2 0.00 0.00 0.00 100 938.0
20260506212500 16 245 37.0 49.9 0.00 0.00 0.00 100 938.1
20260506212100 16 244 32.2 48.3 0.00 0.00 0.00 100 938.1
20260506211700 16 244 33.8 46.7 0.00 0.00 0.00 100 938.1
20260506211301 16 245 43.5 59.5 0.00 0.00 0.00 100 938.1
20260506210901 16 243 38.6 46.7 0.00 0.00 0.00 100 938.1
20260506210458 16 240 32.2 40.2 0.00 0.00 0.00 100 938.1
20260506210058 16 236 29.0 37.0 0.00 0.00 0.00 100 938.1
20260506205658 16 240 32.2 49.9 0.00 0.00 0.00 100 938.1
20260506205258 16 236 22.5 30.6 0.00 0.00 0.00 100 938.1
20260506204858 16 238 29.0 40.2 0.00 0.00 0.00 100 938.0
20260506204444 16 238 35.4 46.7 0.00 0.00 0.00 100 938.0
20260506204044 16 241 37.0 54.7 0.00 0.00 0.00 100 938.0
20260506203244 16 239 25.7 35.4 0.00 0.00 0.00 100 938.0
20260506202844 16 242 40.2 56.3 0.00 0.00 0.00 100 938.0
20260506202441 16 245 33.8 41.8 0.00 0.00 0.00 100 938.0
20260506202041 16 241 25.7 33.8 0.00 0.00 0.00 100 938.0
20260506201641 16 243 35.4 46.7 0.00 0.00 0.00 100 938.0
20260506201241 16 238 29.0 35.4 0.00 0.00 0.00 100 938.0
20260506200841 16 236 25.7 35.4 0.00 0.00 0.00 100 938.0
20260506200438 16 238 29.0 37.0 0.00 0.00 0.00 100 938.0
20260506200038 16 238 29.0 33.8 0.00 0.00 0.00 100 938.0
20260506195638 16 238 27.4 33.8 0.00 0.00 0.00 100 938.0
20260506195238 16 240 27.4 41.8 0.00 0.00 0.00 100 938.1
20260506194835 16 235 24.1 40.2 0.00 0.00 0.00 100 938.1
20260506194432 16 236 22.5 32.2 0.00 0.00 0.00 100 938.1
20260506194032 16 240 30.6 41.8 0.00 0.00 0.00 100 938.1
20260506193632 16 238 29.0 43.5 0.00 0.00 0.00 100 938.1
20260506193232 16 237 25.7 35.4 0.00 0.00 0.00 100 938.1
20260506192832 16 238 29.0 35.4 0.00 0.00 0.00 100 938.1
20260506192429 16 238 19.3 25.7 0.00 0.00 0.00 100 938.1
20260506192029 16 238 22.5 33.8 0.00 0.00 0.00 100 938.1
20260506191629 16 237 27.4 43.5 0.00 0.00 0.00 100 938.1
20260506191229 16 239 20.9 29.0 0.00 0.00 0.00 100 938.2
20260506190829 16 238 16.1 25.7 0.00 0.00 0.00 100 938.1
20260506190426 16 238 19.3 29.0 0.00 0.00 0.00 100 938.1
20260506190026 16 240 19.3 25.7 0.00 0.00 0.00 100 938.1
20260506185626 16 238 17.7 27.4 0.00 0.00 0.00 100 938.1
20260506185227 16 238 19.3 30.6 0.00 0.00 0.00 100 938.1
20260506184827 16 238 17.7 27.4 0.00 0.00 0.00 100 938.1
20260506184424 16 239 20.9 32.2 0.00 0.00 0.00 100 938.1
20260506184024 16 238 25.7 35.4 0.00 0.00 0.00 100 938.0
20260506183624 16 238 22.5 33.8 0.00 0.00 0.00 100 938.0
20260506183224 16 238 22.5 29.0 0.00 0.00 0.00 100 938.0
20260506182823 16 238 24.1 30.6 0.00 0.00 0.00 100 938.0
20260506182420 16 237 29.0 40.2 0.00 0.00 0.00 100 938.0
20260506182020 16 237 32.2 40.2 0.00 0.00 0.00 100 938.0
20260506181620 16 238 27.4 35.4 0.00 0.00 0.00 100 937.9
20260506181220 17 239 29.0 37.0 0.00 0.00 0.00 100 937.9
20260506180812 17 243 35.4 45.1 0.00 0.00 0.00 100 937.9
20260506180409 16 238 29.0 40.2 0.00 0.00 0.00 100 937.9
20260506180009 16 237 32.2 49.9 0.00 0.00 0.00 100 937.8
20260506175209 17 241 33.8 43.5 0.00 0.00 0.00 100 937.8
20260506174809 17 238 35.4 46.7 0.00 0.00 0.00 100 937.8
20260506174402 17 241 32.2 43.5 0.00 0.00 0.00 100 937.8
20260506174002 17 239 32.2 54.7 0.00 0.00 0.00 100 937.8
20260506173602 17 242 35.4 48.3 0.00 0.00 0.00 100 937.9
20260506173202 17 243 37.0 49.9 0.00 0.00 0.00 100 937.9
20260506172802 17 244 33.8 45.1 0.00 0.00 0.00 100 937.9
20260506172400 17 243 32.2 38.6 0.00 0.00 0.00 100 938.0
20260506172000 17 244 40.2 53.1 0.00 0.00 0.00 100 938.0
20260506171600 17 245 35.4 43.5 0.00 0.00 0.00 100 937.9
20260506171200 17 246 38.6 49.9 0.00 0.00 0.00 100 938.0
20260506170800 18 247 43.5 53.1 0.00 0.00 0.00 100 938.0
20260506170357 18 251 38.6 61.2 0.00 0.00 0.00 100 938.0
20260506165957 18 245 41.8 59.5 0.00 0.00 0.00 100 938.0
20260506165557 18 244 45.1 56.3 0.00 0.00 0.00 100 938.0
20260506165157 18 246 49.9 66.0 0.00 0.00 0.00 100 937.9
20260506164757 18 245 43.5 61.2 0.00 0.00 0.00 100 937.9
20260506164354 18 247 38.6 53.1 0.00 0.00 0.00 100 937.8
20260506163954 18 245 43.5 62.8 0.00 0.00 0.00 100 937.7
20260506163554 19 247 45.1 62.8 0.00 0.00 0.00 100 937.8
20260506163155 19 246 48.3 56.3 0.00 0.00 0.00 100 937.8
20260506162754 19 248 45.1 62.8 0.00 0.00 0.00 100 937.8
20260506162351 19 250 40.2 59.5 0.00 0.00 0.00 100 937.7
20260506161951 19 247 37.0 46.7 0.00 0.00 0.00 100 937.7
20260506161551 19 249 38.6 51.5 0.00 0.00 0.00 100 937.7
20260506161151 19 244 45.1 57.9 0.00 0.00 0.00 100 937.8
20260506160752 19 245 48.3 64.4 0.00 0.00 0.00 100 937.8
20260506160349 19 247 43.5 54.7 0.00 0.00 0.00 100 937.8
20260506155949 19 247 38.6 48.3 0.00 0.00 0.00 100 937.8
20260506155549 19 248 38.6 48.3 0.00 0.00 0.00 100 937.8
20260506155149 19 246 41.8 53.1 0.00 0.00 0.00 100 937.9
20260506154748 19 249 38.6 48.3 0.00 0.00 0.00 100 937.9
20260506154345 19 250 48.3 61.2 0.00 0.00 0.00 100 937.9
20260506153942 19 248 45.1 62.8 0.00 0.00 0.00 100 937.9
20260506153542 19 248 40.2 51.5 0.00 0.00 0.00 100 937.9
20260506153131 20 249 48.3 64.4 0.00 0.00 0.00 100 937.9
20260506152731 20 250 48.3 70.8 0.00 0.00 0.00 100 937.8
20260506152328 20 248 46.7 66.0 0.00 0.00 0.00 100 937.9
20260506151928 20 247 51.5 62.8 0.00 0.00 0.00 100 937.9
20260506151528 20 248 48.3 66.0 0.00 0.00 0.00 100 937.9
20260506151128 20 246 48.3 61.2 0.00 0.00 0.00 100 938.0
20260506150728 20 245 41.8 57.9 0.00 0.00 0.00 100 938.0
20260506150325 20 246 45.1 72.4 0.00 0.00 0.00 100 938.0
20260506145925 20 247 53.1 72.4 0.00 0.00 0.00 100 938.1
20260506145525 20 248 48.3 66.0 0.00 0.00 0.00 100 938.2
20260506145125 20 248 54.7 70.8 0.00 0.00 0.00 100 938.1
20260506144725 20 246 46.7 70.8 0.00 0.00 0.00 100 938.2
20260506144322 19 248 51.5 70.8 0.00 0.00 0.00 100 938.1
20260506143922 20 247 45.1 64.4 0.00 0.00 0.00 100 938.3
20260506143523 20 248 54.7 74.0 0.00 0.00 0.00 100 938.3
20260506143122 20 249 53.1 64.4 0.00 0.00 0.00 100 938.2
20260506142723 20 250 61.2 77.2 0.00 0.00 0.00 100 938.2
20260506142320 21 248 56.3 72.4 0.00 0.00 0.00 100 938.2
20260506141920 21 248 61.2 83.7 0.00 0.00 0.00 100 938.2
20260506141520 21 249 62.8 80.5 0.00 0.00 0.00 100 938.2
20260506140720 21 251 48.3 64.4 0.00 0.00 0.00 100 938.2
20260506140317 21 255 48.3 59.5 0.00 0.00 0.00 100 938.2
20260506135916 21 249 51.5 64.4 0.00 0.00 0.00 100 938.2
20260506135516 21 253 51.5 64.4 0.00 0.00 0.00 100 938.2
20260506135116 21 245 41.8 54.7 0.00 0.00 0.00 100 938.2
20260506134716 21 246 41.8 57.9 0.00 0.00 0.00 100 938.2
20260506134314 21 246 41.8 51.5 0.00 0.00 0.00 100 938.3
20260506133914 21 249 41.8 54.7 0.00 0.00 0.00 100 938.3
20260506133510 21 250 48.3 57.9 0.00 0.00 0.00 100 938.3
20260506133110 21 250 37.0 48.3 0.00 0.00 0.00 100 938.3
20260506132710 21 248 41.8 57.9 0.00 0.00 0.00 100 938.3
20260506132308 21 245 41.8 53.1 0.00 0.00 0.00 100 938.4
20260506131908 21 245 41.8 62.8 0.00 0.00 0.00 100 938.3
20260506131508 21 244 35.4 51.5 0.00 0.00 0.00 100 938.4
20260506131108 21 248 45.1 64.4 0.00 0.00 0.00 100 938.4
20260506130708 21 247 46.7 57.9 0.00 0.00 0.00 100 938.4
20260506130305 21 251 43.5 54.7 0.00 0.00 0.00 100 938.4
20260506125905 21 249 46.7 74.0 0.00 0.00 0.00 100 938.5
20260506125456 21 244 53.1 74.0 0.00 0.00 0.00 100 938.5
20260506125056 21 248 48.3 64.4 0.00 0.00 0.00 100 938.5
20260506124656 20 246 43.5 61.2 0.00 0.00 0.00 100 938.5
20260506124254 20 245 43.5 62.8 0.00 0.00 0.00 100 938.5
20260506123854 20 245 46.7 77.2 0.00 0.00 0.00 100 938.5
20260506123454 20 243 45.1 64.4 0.00 0.00 0.00 100 938.5
20260506123054 20 247 49.9 64.4 0.00 0.00 0.00 100 938.5
20260506122654 20 246 57.9 74.0 0.00 0.00 0.00 100 938.4
20260506122251 20 248 64.4 83.7 0.00 0.00 0.00 100 938.5
20260506121851 20 244 61.2 80.5 0.00 0.00 0.00 100 938.5
20260506121451 20 241 43.5 64.4 0.00 0.00 0.00 100 938.6
20260506121051 20 246 53.1 66.0 0.00 0.00 0.00 100 938.6
20260506120651 20 249 54.7 66.0 0.00 0.00 0.00 100 938.5
20260506120248 20 249 59.5 70.8 0.00 0.00 0.00 100 938.5
20260506115848 20 248 57.9 69.2 0.00 0.00 0.00 100 938.6
20260506115448 20 248 54.7 72.4 0.00 0.00 0.00 100 938.6
20260506114648 20 251 57.9 74.0 0.00 0.00 0.00 100 938.7